Location: Hiekkapohja
(62.3333°N, 25.7833°E)
Time: 00:48:50
(UTC+00:00)

Cosmos 1437 - Pass Details

Date: 07 August 2020
Orbit: 368 x 371 km, 81.2° (Epoch: 20 September)

Event Time Altitude Azimuth Distance (km) Brightness Sun altitude
Rises 00:08:19 0° 334° (NNW) 2,243 7.0 -8.6°
Reaches altitude 10° 00:10:37 10° 317° (NW) 1,386 5.7 -8.5°
Maximum altitude 00:12:54 20° 267° (W) 934 4.2 -8.4°
Enters shadow 00:14:55 12° 221° (SW) 1,290 4.6 -8.3°
